Regional Weather Roundup
Issued by NWS Grand Forks, ND

Home | Current Version | Previous Version | Text Only | Print | Product List | Glossary Off
Versions: 1 2 3 4 5 6 7 8 9 10 11 12 13 14 15 16 17 18 19 20 21 22 23 24 25 26 27 28 29 30 31 32 33 34 35 36 37 38 39 40 41 42 43 44 45 46 47 48 49 50

000
ASUS43 KFGF 281231
RWRFGF
PRAIRIE TO PINES  WEATHER ROUNDUP
NATIONAL WEATHER SERVICE EASTERN NORTH DAKOTA/GRAND FORKS ND
600 AM CST SAT FEB 28 2015

 **SATELLITE DATA USED TO AUGMENT SKY COVER AT AUTOMATED STATIONS**
 *****  WEATHER ACROSS EASTERN NORTH DAKOTA  *****

CITY           SKY/WX    TMP DP  RH WIND       PRES   REMARKS
GRAND FORKS    FAIR       3  -3  76 S15       30.22F WCI -16
6HR MIN TEMP:   1; 6HR MAX TEMP:   4;

GRAND FRKS AFB FAIR       3  -4  72 S12       30.21S WCI -13
GRAND FRKS NWS   N/A      3 N/A N/A S12         N/A  WCI -13
DEVILS LAKE    CLOUDY     7   0  72 SE6       30.10F WCI  -3
6HR MIN TEMP:   3; 6HR MAX TEMP:   9;

FARGO          FAIR       6  -2  69 S14       30.27F WCI -11
WAHPETON ARPT  FAIR       5  -2  72 S16       30.30F WCI -14
$$

 ***** WEATHER ACROSS CENTRAL AND WESTERN NORTH DAKOTA  *****

CITY           SKY/WX    TMP DP  RH WIND       PRES   REMARKS
BISMARCK       CLEAR      7   2  80 E3        30.08R
6HR MIN TEMP:   7; 6HR MAX TEMP:  13;

MINOT          CLOUDY    13   4  67 W5        30.05R WCI   5
6HR MIN TEMP:  13; 6HR MAX TEMP:  15;

JAMESTOWN      FAIR       4  -2  76 S16       30.14S WCI -15
6HR MIN TEMP:   3; 6HR MAX TEMP:   6;

MINOT AFB      CLOUDY    13   7  77 W8        30.05S WCI   1
GARRISON         N/A     10   4  76 CALM      30.04R
WILLISTON      CLOUDY     4  -4  69 N9        30.12R WCI -10
6HR MIN TEMP:   4; 6HR MAX TEMP:  12;

DICKINSON      MOCLDY     8   4  83 W10       29.99R WCI  -6
6HR MIN TEMP:   5; 6HR MAX TEMP:  12;

HETTINGER      MOCLDY     6   3  87 W7        30.03R WCI  -6
6HR MIN TEMP:   2; 6HR MAX TEMP:  12;

$$

 *****  OTHER AIRPORT OBSERVATIONS IN OUR AREA  *****

CITY           SKY/WX    TMP DP  RH WIND       PRES   REMARKS
WALHALLA         N/A      5   0  78 SE9       30.16F WCI  -9
GRAFTON AIRPOR NOT AVBL
VALLEY CITY AR FLURRIES   7   0  72 S17G23    30.17S WCI -12
CANDO          CLOUDY     5   0  78 SE5       30.10S WCI  -4
CAVALIER APRT  PTSUNNY    1  -2  85 S9        30.18F WCI -14
GWINNER        SUNNY     10   1  67 S15       30.24S WCI  -6
SHEYENNE NWR     N/A      0  -7  71 SE5       29.95S WCI -10
ROLLA          CLOUDY     3   0  85 SW9       30.05F WCI -11
 ***** THE ABOVE OBSERVATIONS ARE NON NWS ARE NOT QUALITY
       CONTROLLED AND MAY MIS-REPORT RAIN FOR SNOW...
$$

  *****  WEATHER ACROSS NORTHERN MINNESOTA  *****

CITY           SKY/WX    TMP DP  RH WIND       PRES   REMARKS
FLAG ISLAND    FAIR      -6 -11  77 SE7       30.23F WCI -20
WARROAD        FAIR       3  -4  72 S3        30.23F
ROSEAU         FAIR       3  -4  72 S10       30.22F WCI -12
HALLOCK        CLOUDY     1  -6  71 S13       30.21F WCI -16
THF RVR FALLS  FAIR       1  -2  85 SE10      30.23F WCI -14
6HR MIN TEMP:   0; 6HR MAX TEMP:   3;

BAUDETTE       FAIR      -3  -8  79 S6        30.25F WCI -15
6HR MIN TEMP:  -8; 6HR MAX TEMP:   0;

WASKISH        FAIR       3  -2  78 SE6       30.27F WCI  -8
CROOKSTON      FAIR       7   1  78 S13       30.26F WCI  -9
STEPHEN NDAWN    N/A      3  -2  78 S18         N/A  WCI -17
GREENBUSH NDAW   N/A      3  -2  78 MISG        N/A
$$
  *****  WEATHER ACROSS CENTRAL AND WEST MINNESOTA  *****

CITY           SKY/WX    TMP DP  RH WIND       PRES   REMARKS
FOSSTON        FAIR       1  -4  78 S10       30.25F WCI -14
BEMIDJI        FAIR      -1  -5  82 S5        30.28S WCI -11
PARK RAPIDS    FAIR      -2  -5  87 S7        30.30S WCI -15
6HR MIN TEMP:  -4; 6HR MAX TEMP:   0;

ELBOW LAKE     FAIR       1  -4  80 SE15      30.31F WCI -19
6HR MIN TEMP:   0; 6HR MAX TEMP:   4;

WADENA         FAIR       0  -6  78 S9        30.32S WCI -16
DETROIT LAKES  FAIR       1  -2  85 SE9       30.28F WCI -14
MOORHEAD       FAIR       7   1  78 S14       30.29S WCI -10
FERGUS FALLS   FAIR       3  -4  72 SE13      30.35F WCI -14
MORRIS MN      FAIR       0  -6  78 SE13      30.34S WCI -18
STAPLES        FAIR      -2  -6  84 S7        30.35S WCI -16
$$
  *****  WEATHER ELSEWHERE ACROSS MINNESOTA  *****

CITY           SKY/WX    TMP DP  RH WIND       PRES   REMARKS
DULUTH         FAIR      -1  -6  79 SW7       30.38F WCI -14
6HR MIN TEMP:  -1; 6HR MAX TEMP:   6;

INTRNTL FALLS  FAIR      -1  -8  72 CALM      30.30F
6HR MIN TEMP: -14; 6HR MAX TEMP:   0;

ELY            FAIR     -11 -17  77 S2        30.35S
CLOQUET        FAIR      -4  -8  84 S6        30.40F WCI -16
WHEATON        FAIR       1  -4  78 SE8       30.34R WCI -12
BRAINERD       FAIR      -2  -6  83 S7        30.39S WCI -15
6HR MIN TEMP:  -6; 6HR MAX TEMP:   2;

HIBBING        FAIR     -20 -27  70 CALM      30.37R
6HR MIN TEMP: -21; 6HR MAX TEMP: -11;

ALEXANDRIA     FAIR       2  -4  76 S10       30.35R WCI -14
6HR MIN TEMP:   1; 6HR MAX TEMP:   4;

SAINT CLOUD    FAIR      -3  -7  82 S7        30.45R WCI -16
6HR MIN TEMP:  -4; 6HR MAX TEMP:   3;

MINNEAPOLIS    FAIR      -2  -7  79 SE7       30.52F WCI -15
6HR MIN TEMP:  -2; 6HR MAX TEMP:   5;

$$

  *****  WEATHER ACROSS SOUTH DAKOTA  *****

CITY           SKY/WX    TMP DP  RH WIND       PRES   REMARKS
SIOUX FALLS    FAIR       4  -3  73 S13       30.37S WCI -13
6HR MIN TEMP:   4; 6HR MAX TEMP:   6;

BROOKINGS      NOT AVBL
WATERTOWN      FAIR      -1  -6  79 S9        30.26S WCI -16
6HR MIN TEMP:  -2; 6HR MAX TEMP:   2;

HURON          CLEAR      6  -1  73 S14       30.28S WCI -11
6HR MIN TEMP:   6; 6HR MAX TEMP:   8;

SISSETON         N/A     11  -1  58 SW17      30.27S WCI  -6
ABERDEEN       CLEAR      6  -1  73 S14       30.24S WCI -11
6HR MIN TEMP:   6; 6HR MAX TEMP:   9;

MITCHELL       CLEAR      8   1  73 S15       30.33S WCI  -9
PIERRE         CLEAR     11   3  70 S14       30.15R WCI  -5
6HR MIN TEMP:  10; 6HR MAX TEMP:  13;

MOBRIDGE       MOCLDY    11   3  70 SE14      30.09S WCI  -5
RAPID CITY     CLEAR     15   8  73 N21       30.02R WCI  -2
6HR MIN TEMP:   4; 6HR MAX TEMP:  15;

$$

  *****  SOME WEATHER IN NEARBY STATES *****

CITY           SKY/WX    TMP DP  RH WIND       PRES   REMARKS
GLASGOW MT     CLOUDY    11   4  73 CALM      30.14R
6HR MIN TEMP:   5; 6HR MAX TEMP:  11; 6HR PCP: TRACE;

GREAT FALLS MT CLOUDY    12   6  77 CALM      30.12R
6HR MIN TEMP:  12; 6HR MAX TEMP:  15; 6HR PCP: TRACE;

CHEYENNE WY    CLEAR      3  -3  76 NW8       29.85R WCI -10
6HR MIN TEMP:  -2; 6HR MAX TEMP:   5;

SCOTTSBLUFF NE PTCLDY     6   2  83 E6        30.01R WCI  -4
6HR MIN TEMP:   6; 6HR MAX TEMP:  13;

OMAHA NE       FAIR       7   1  76 SE6       30.50S WCI  -3
6HR MIN TEMP:   6; 6HR MAX TEMP:  10;

DES MOINES IA  FAIR       2  -5  72 SE5       30.56S WCI  -8
6HR MIN TEMP:   2; 6HR MAX TEMP:   6;

DAVENPORT IA   FAIR      -9 -15  75 SE5       30.66R WCI -20
6HR MIN TEMP: -12; 6HR MAX TEMP:  -4;

CHICAGO IL     FAIR      -7 -11  83 S3        30.69R
6HR MIN TEMP: -10; 6HR MAX TEMP:   2;

EAU CLAIRE WI  FAIR      -6 -12  75 S3        30.56R
6HR MIN TEMP:  -7; 6HR MAX TEMP:   1;

LA CROSSE WI   FAIR      -8 -13  78 S5        30.64R WCI -19
6HR MIN TEMP:  -8; 6HR MAX TEMP:   1;

$$

  *****  SOME NATIONAL WEATHER *****

CITY           SKY/WX    TMP DP  RH WIND       PRES   REMARKS
LA GUARDIA NY  FAIR      15  -2  46 NW7       30.77R WCI   5
6HR MIN TEMP:  15; 6HR MAX TEMP:  20;

RALEIGH NC     MOCLDY    26  17  68 NE10      30.71R WCI  16
6HR MIN TEMP:  26; 6HR MAX TEMP:  29;

ATLANTA GA     MOCLDY    36  28  73 E10       30.52R
6HR MIN TEMP:  31; 6HR MAX TEMP:  36;

NEW ORLEANS LA MOCLDY    42  30  62 NE13      30.39R
6HR MIN TEMP:  41; 6HR MAX TEMP:  46;

OKLAHOMA CITY  LGT SNOW  19  14  79 E7        30.39S WCI  10
6HR MIN TEMP:  19; 6HR MAX TEMP:  20; 6HR PCP:  0.03;

ALBUQUERQUE NM SNOW      20  18  92 N7        29.91R VSB 1/2 WCI  11
6HR MIN TEMP:  19; 6HR MAX TEMP:  21; 6HR PCP:  0.26;

SALT LAKE CITY MOCLDY    30  21  69 NE6       29.65F WCI  24
6HR MIN TEMP:  29; 6HR MAX TEMP:  34;



USA.gov is the U.S. government's official web portal to all federal, state and local government web resources and services.